Notices

What's New in latest Release from April 7th, 2021:

- Updated Glossary, including Speed of Maximum Gust, and Total Hourly Precipitation

- Updated national and regional climate services offices contacts and prices information

- Addition of station inventory lists for 1981-2010, 1971-2000, and 1961-1990 Normals.

If you haven't already, please take our survey and provide feedback about our website: https://eccc.sondage-survey.ca/f/LanguageSelection.aspx?s=442ca660-fcf1-47c0-95a9-59707d6fd709

Hourly Data Report for January 24, 2006

TORONTO CITY
ONTARIO

43°40'00.000" N
79°24'00.000" W
112.50 m
6158355
71508
XTO

Download Data

Hourly Data (January 2006)
Hourly Data Report for January 24, 2006
TIME
LST
Temp Definition
°C
Dew Point Definition
°C
Rel Hum Definition
%
Precip. Amount Definition
mm

Wind Dir Definition
10's deg

Wind Spd Definition
km/h
Visibility Definition
km
Stn Press Definition
kPa
Hmdx Definition


Wind Chill Definition


Weather Definition


00:00 -0.4 -4.8 72   LegendMM LegendMM   100.01     LegendNANA
01:00 -0.9 -4.8 75   LegendMM LegendMM   99.93     LegendNANA
02:00 -0.8 -3.8 80   LegendMM LegendMM   99.85     LegendNANA
03:00 -0.9 -3.1 85   LegendMM LegendMM   99.75     LegendNANA
04:00 -0.9 -2.7 88   LegendMM LegendMM   99.62     LegendNANA
05:00 -0.9 -2.7 88   LegendMM LegendMM   99.52     LegendNANA
06:00 0.1 -1.4 90   LegendMM LegendMM   99.40     LegendNANA
07:00 1.2 -0.8 86   LegendMM LegendMM   99.26     LegendNANA
08:00 1.8 -1.1 81   LegendMM LegendMM   99.14     LegendNANA
09:00 2.6 -2.2 71   LegendMM LegendMM   99.01     LegendNANA
10:00 3.4 -3.0 63   LegendMM LegendMM   98.87     LegendNANA
11:00 4.0 -2.8 61   LegendMM LegendMM   98.73     LegendNANA
12:00 4.5 -1.9 63   LegendMM LegendMM   98.58     LegendNANA
13:00 4.6 -1.5 65   LegendMM LegendMM   98.40     LegendNANA
14:00 1.5 0.6 94   LegendMM LegendMM   98.39     LegendNANA
15:00 1.7 1.0 95   LegendMM LegendMM   98.34     LegendNANA
16:00 1.5 1.0 96   LegendMM LegendMM   98.33     LegendNANA
17:00 1.7 1.2 96   LegendMM LegendMM   98.32     LegendNANA
18:00 2.4 1.2 92   LegendMM LegendMM   98.33     LegendNANA
19:00 2.5 1.0 90   LegendMM LegendMM   98.33     LegendNANA
20:00 2.5 0.9 89   LegendMM LegendMM   98.32     LegendNANA
21:00 2.6 1.0 89   LegendMM LegendMM   98.33     LegendNANA
22:00 3.0 0.9 86   LegendMM LegendMM   98.33     LegendNANA
23:00 2.6 0.8 88   LegendMM LegendMM   98.36     LegendNANA

Notes on Data Quality.

Legend

  • E = Estimated
  • M = Missing
  • NA = Not Available*
  • [empty] = Indicates an unobserved value
Date modified: